• In Netherlands
  • List of Countries
  • For 7 days
  • Water Temperature
  • Satellite Maps
  • Weather Map
  • Weather Widgets
  • user-avatar
    Login

    Hourly Weather Sumgayit

    Today, 26 February, Sunday

    Time Temperature Precipitation Wind Pressure Humidity
    00:00 +6°C° 0 mm 8 mps 738 mmHg 57%
    01:00 +6°C° 0 mm 8 mps 738 mmHg 56%
    02:00 +6°C° 0 mm 8 mps 738 mmHg 54%
    03:00 +6°C° 0 mm 9 mps 737 mmHg 49%
    04:00 +6°C° 0 mm 8 mps 737 mmHg 48%
    05:00 +6°C° 0 mm 8 mps 737 mmHg 48%
    06:00 +5°C° 0 mm 7 mps 737 mmHg 47%
    07:00 +8°C° 0 mm 7 mps 738 mmHg 45%
    08:00 +9°C° 0 mm 7 mps 738 mmHg 42%
    09:00 +11°C° 0 mm 7 mps 739 mmHg 39%
    10:00 +11°C° 0 mm 7 mps 740 mmHg 42%
    11:00 +11°C° 0 mm 8 mps 740 mmHg 46%
    12:00 +11°C° 0 mm 9 mps 741 mmHg 49%
    13:00 +9°C° 0 mm 10 mps 742 mmHg 52%
    14:00 +8°C° 0 mm 11 mps 742 mmHg 55%
    15:00 +7°C° 0 mm 12 mps 743 mmHg 58%
    16:00 +5°C° 0 mm 12 mps 744 mmHg 60%
    17:00 +3°C° 0 mm 13 mps 745 mmHg 63%
    18:00 +1°C° 0 mm 13 mps 745 mmHg 65%
    19:00 0°C° 0 mm 12 mps 746 mmHg 63%
    20:00 +1°C° 0 mm 11 mps 747 mmHg 62%
    21:00 +1°C° 0 mm 10 mps 748 mmHg 60%
    22:00 +1°C° 0 mm 9 mps 748 mmHg 60%
    23:00 +1°C° 0 mm 8 mps 748 mmHg 59%

    Tomorrow, 27 February, Monday

    Time Temperature Precipitation Wind Pressure Humidity
    00:00 +2°C° 0 mm 7 mps 749 mmHg 59%
    01:00 +1°C° 0 mm 6 mps 749 mmHg 60%
    02:00 +1°C° 0 mm 5 mps 749 mmHg 61%
    03:00 +1°C° 0 mm 4 mps 749 mmHg 62%
    04:00 +2°C° 0 mm 3 mps 749 mmHg 63%
    05:00 +2°C° 0 mm 3 mps 749 mmHg 64%
    06:00 +3°C° 0 mm 2 mps 749 mmHg 64%
    07:00 +3°C° 0 mm 3 mps 749 mmHg 63%
    08:00 +3°C° 0 mm 3 mps 749 mmHg 62%
    09:00 +3°C° 0 mm 3 mps 749 mmHg 60%
    10:00 +4°C° 0 mm 4 mps 748 mmHg 60%
    11:00 +5°C° 0 mm 4 mps 748 mmHg 61%
    12:00 +5°C° 0 mm 5 mps 748 mmHg 61%
    13:00 +5°C° 0 mm 5 mps 747 mmHg 61%
    14:00 +6°C° 0 mm 5 mps 747 mmHg 62%
    15:00 +5°C° 0 mm 6 mps 746 mmHg 62%
    16:00 +6°C° 0 mm 5 mps 746 mmHg 66%
    17:00 +5°C° 0 mm 5 mps 746 mmHg 71%
    18:00 +3°C° 0 mm 5 mps 746 mmHg 75%
    19:00 +3°C° 0 mm 5 mps 746 mmHg 76%
    20:00 +3°C° 0 mm 5 mps 746 mmHg 78%
    21:00 +3°C° 0 mm 5 mps 746 mmHg 79%
    22:00 +4°C° 0 mm 4 mps 745 mmHg 82%
    23:00 +3°C° 0 mm 4 mps 745 mmHg 84%

    Day after tomorrow, 28 February, Tuesday

    Time Temperature Precipitation Wind Pressure Humidity
    00:00 +3°C° 0 mm 4 mps 745 mmHg 87%
    01:00 +3°C° 0 mm 4 mps 744 mmHg 88%
    02:00 +3°C° 0 mm 4 mps 744 mmHg 88%
    03:00 +2°C° 0 mm 3 mps 744 mmHg 89%
    04:00 +2°C° 0 mm 3 mps 744 mmHg 88%
    05:00 +3°C° 0 mm 2 mps 744 mmHg 88%
    06:00 +3°C° 0 mm 2 mps 745 mmHg 88%
    07:00 +4°C° 0 mm 2 mps 745 mmHg 81%
    08:00 +5°C° 0 mm 2 mps 746 mmHg 74%
    09:00 +7°C° 0 mm 2 mps 746 mmHg 68%
    10:00 +7°C° 0 mm 2 mps 746 mmHg 64%
    11:00 +9°C° 0 mm 1 mps 746 mmHg 60%
    12:00 +10°C° 0 mm 1 mps 746 mmHg 56%
    13:00 +10°C° 0 mm 2 mps 746 mmHg 55%
    14:00 +10°C° 0 mm 2 mps 745 mmHg 55%
    15:00 +10°C° 0 mm 2 mps 745 mmHg 54%
    16:00 +9°C° 0 mm 2 mps 745 mmHg 61%
    17:00 +8°C° 0 mm 2 mps 746 mmHg 67%
    18:00 +7°C° 0 mm 2 mps 746 mmHg 73%
    19:00 +6°C° 0 mm 2 mps 746 mmHg 77%
    20:00 +7°C° 0 mm 1 mps 747 mmHg 80%
    21:00 +6°C° 0 mm 1 mps 747 mmHg 83%
    22:00 +6°C° 0 mm 1 mps 747 mmHg 84%
    23:00 +6°C° 0 mm 1 mps 747 mmHg 85%

    1 March, Wednesday

    Time Temperature Precipitation Wind Pressure Humidity
    00:00 +5°C° 0 mm 1 mps 746 mmHg 86%
    01:00 +5°C° 0 mm 1 mps 746 mmHg 86%
    02:00 +5°C° 0 mm 1 mps 746 mmHg 86%
    03:00 +4°C° 0 mm 0 mps 746 mmHg 86%
    04:00 +5°C° 0 mm 1 mps 746 mmHg 85%
    05:00 +4°C° 0 mm 1 mps 746 mmHg 85%
    06:00 +4°C° 0 mm 1 mps 747 mmHg 85%
    07:00 +6°C° 0 mm 1 mps 747 mmHg 77%
    08:00 +8°C° 0 mm 1 mps 747 mmHg 69%
    09:00 +8°C° 0 mm 2 mps 748 mmHg 61%
    10:00 +9°C° 0 mm 3 mps 747 mmHg 57%
    11:00 +11°C° 0 mm 3 mps 747 mmHg 54%
    12:00 +12°C° 0 mm 4 mps 747 mmHg 50%
    13:00 +12°C° 0 mm 4 mps 746 mmHg 51%
    14:00 +12°C° 0 mm 5 mps 746 mmHg 52%
    15:00 +12°C° 0 mm 5 mps 745 mmHg 54%
    16:00 +10°C° 0 mm 5 mps 745 mmHg 60%
    17:00 +9°C° 0 mm 5 mps 745 mmHg 67%
    18:00 +7°C° 0 mm 5 mps 745 mmHg 73%
    19:00 +7°C° 0 mm 4 mps 745 mmHg 76%
    20:00 +6°C° 0 mm 4 mps 745 mmHg 79%
    21:00 +6°C° 0 mm 4 mps 745 mmHg 82%
    22:00 +6°C° 0 mm 4 mps 745 mmHg 82%
    23:00 +6°C° 0 mm 4 mps 744 mmHg 83%

    2 March, Thursday

    Time Temperature Precipitation Wind Pressure Humidity
    00:00 +5°C° 0 mm 4 mps 744 mmHg 83%
    01:00 +5°C° 0 mm 4 mps 743 mmHg 83%
    02:00 +5°C° 0 mm 4 mps 743 mmHg 83%
    03:00 +5°C° 0 mm 4 mps 743 mmHg 83%
    04:00 +5°C° 0 mm 4 mps 743 mmHg 84%
    05:00 +5°C° 0 mm 4 mps 743 mmHg 84%
    06:00 +5°C° 0 mm 4 mps 742 mmHg 85%
    07:00 +6°C° 0 mm 4 mps 742 mmHg 80%
    08:00 +7°C° 0 mm 5 mps 742 mmHg 74%
    09:00 +8°C° 0 mm 5 mps 742 mmHg 69%
    10:00 +9°C° 0 mm 5 mps 742 mmHg 64%
    11:00 +10°C° 0 mm 5 mps 741 mmHg 60%
    12:00 +13°C° 0 mm 6 mps 741 mmHg 55%
    13:00 +13°C° 0 mm 6 mps 741 mmHg 54%
    14:00 +13°C° 0 mm 6 mps 740 mmHg 53%
    15:00 +13°C° 0 mm 6 mps 740 mmHg 53%
    16:00 +12°C° 0 mm 5 mps 739 mmHg 58%
    17:00 +9°C° 0 mm 5 mps 739 mmHg 64%
    18:00 +8°C° 0 mm 4 mps 739 mmHg 69%
    19:00 +9°C° 0 mm 3 mps 739 mmHg 70%
    20:00 +8°C° 0 mm 3 mps 739 mmHg 71%
    21:00 +8°C° 0 mm 3 mps 739 mmHg 72%
    22:00 +8°C° 0 mm 2 mps 739 mmHg 70%
    23:00 +8°C° 0 mm 2 mps 738 mmHg 68%

    3 March, Friday

    Time Temperature Precipitation Wind Pressure Humidity
    00:00 +8°C° 0 mm 2 mps 738 mmHg 66%
    01:00 +8°C° 0 mm 2 mps 738 mmHg 66%
    02:00 +8°C° 0 mm 2 mps 737 mmHg 66%
    03:00 +7°C° 0 mm 3 mps 737 mmHg 66%
    04:00 +7°C° 0 mm 3 mps 737 mmHg 67%
    05:00 +7°C° 0 mm 3 mps 737 mmHg 69%
    06:00 +7°C° 0 mm 3 mps 737 mmHg 70%
    07:00 +8°C° 0 mm 3 mps 738 mmHg 66%
    08:00 +10°C° 0 mm 3 mps 738 mmHg 61%
    09:00 +11°C° 0 mm 3 mps 738 mmHg 57%
    10:00 +12°C° 0 mm 4 mps 738 mmHg 54%
    11:00 +13°C° 0 mm 4 mps 738 mmHg 51%
    12:00 +14°C° 0 mm 4 mps 737 mmHg 47%
    13:00 +14°C° 0 mm 5 mps 737 mmHg 48%
    14:00 +14°C° 0 mm 5 mps 737 mmHg 49%
    15:00 +14°C° 0 mm 5 mps 737 mmHg 49%
    16:00 +13°C° 0 mm 4 mps 737 mmHg 54%
    17:00 +12°C° 0 mm 4 mps 737 mmHg 60%
    18:00 +10°C° 0 mm 3 mps 737 mmHg 65%
    19:00 +10°C° 0 mm 3 mps 738 mmHg 67%
    20:00 +10°C° 0 mm 2 mps 738 mmHg 69%
    21:00 +9°C° 0 mm 2 mps 738 mmHg 70%
    22:00 +10°C° 0 mm 1 mps 738 mmHg 71%
    23:00 +10°C° 0 mm 1 mps 738 mmHg 72%
    Show more